Location: San Antonio
(29.4240°N, 98.4930°W)
Time: 09:48:03
(UTC-05:00)

Transit 2A Rocket - Visible Passes

Search period start: 14 July 2024 00:00
Search period end: 24 July 2024 00:00
Orbit: 582 x 910 km, 66.7° (Epoch: 13 July)

Date Brightness Start Highest point End Pass type
(mag) Time Alt. Az. Time Alt. Az. Time Alt. Az.
14 Jul 7.4 00:36:12 10° N 00:39:34 18° NE 00:39:34 18° NE visible
14 Jul 7.3 02:17:19 10° NNW 02:19:20 21° NW 02:19:20 21° NW visible
14 Jul 7.7 23:54:54 10° NE 23:55:41 10° NE 23:56:14 10° NE visible
15 Jul 7.0 01:33:07 10° NNW 01:36:00 29° NNW 01:36:00 29° NNW visible
16 Jul 6.9 00:49:15 10° N 00:52:43 30° NNE 00:52:43 30° NNE visible
17 Jul 7.1 00:05:48 10° N 00:09:29 23° NE 00:09:29 23° NE visible
17 Jul 7.5 01:47:38 10° NW 01:49:15 18° NW 01:49:15 18° NW visible
17 Jul 7.4 23:23:08 10° NNE 23:26:02 14° NE 23:26:17 14° NE visible
18 Jul 7.0 01:03:14 10° NNW 01:06:03 29° NNW 01:06:03 29° NNW visible
19 Jul 6.6 00:19:13 10° NNW 00:22:54 36° N 00:22:54 36° N visible
19 Jul 6.7 23:35:33 10° N 23:39:48 29° NE 23:39:48 29° NE visible
20 Jul 7.5 01:18:01 10° NW 01:19:35 17° NW 01:19:35 17° NW visible
20 Jul 7.1 22:52:24 10° NNE 22:56:20 18° NE 22:56:44 18° ENE visible
21 Jul 6.8 00:33:24 10° NNW 00:36:31 31° NW 00:36:31 31° NW visible
21 Jul 6.1 23:49:12 10° NNW 23:53:29 47° N 23:53:29 47° N visible
22 Jul 6.1 23:05:22 10° N 23:10:30 39° NE 23:10:30 39° NE visible
23 Jul 7.5 00:48:32 10° NW 00:50:18 17° WNW 00:50:18 17° WNW visible
23 Jul 6.7 22:21:56 10° N 22:26:34 23° NE 22:27:34 22° ENE visible
